Weather History for Tri-Cities, TN

Change the Weather History Date:

Thursday, July 5, 2012

  Actual Average Record
Temperature  
Mean Temperature 81 °F 75 °F  
Max Temperature 95 °F 86 °F 97 °F (1993)
Min Temperature 66 °F 64 °F 48 °F (1967)
Degree Days  
Heating Degree Days 0 0  
Month to date heating degree days 0 0  
Since 1 June heating degree days 5 11  
Since 1 July heating degree days 0 0  
Cooling Degree Days 16 10  
Month to date cooling degree days 83 47  
Year to date cooling degree days 477 326  
Since 1 June cooling degree days 315 253  
Growing Degree Days 30 (Base 50)    
Moisture  
Dew Point 66 °F    
Average Humidity 69    
Maximum Humidity 93    
Minimum Humidity 44    
Precipitation  
Precipitation 0.86 in 0.14 in 1.49 in (1981)
Month to date precipitation 1.18 0.71  
Year to date precipitation 19.17 22.00  
Snow  
Snow 0.00 in 0.00 in - ()
Month to date snowfall 0.0 0.0  
Since 1 June snowfall 0.0 0.0  
Since 1 July snowfall 0.0 0.0  
Snow Depth 0.00 in    
Sea Level Pressure  
Sea Level Pressure 30.02 in    
Wind  
Wind Speed 3 mph (SE)    
Max Wind Speed 23 mph    
Max Gust Speed 39 mph    
Visibility 7 miles    
Events Fog , Rain , Thunderstorm    
T = Trace of Precipitation, MM = Missing Value Source: NWS Daily Summary

Daily Weather History Graph

Daily Weather History Graph

Search for Another Location

Airport:

Trip Planner

Search our weather history database for the weather conditions in past years. The results will help you decide how hot, cold, wet, or windy it might be!

Date:

Astronomy

Jul. 05, 2012 Rise Set
Actual Time 6:17 AM EDT 8:51 PM EDT
Civil Twilight 5:47 AM EDT 9:21 PM EDT
Nautical Twilight 5:09 AM EDT 9:58 PM EDT
Astronomical Twilight 4:27 AM EDT 10:40 PM EDT
Moon 10:12 PM EDT (7/5) 8:23 AM EDT (7/5)
Length of Visible Light 15h 34m
Length of Day
14h 33m
Waning Gibbous, 95% of the Moon is Illuminated
Jul 5
Waning Gibbous
Jul 10
Last Quarter
Jul 19
New
Jul 26
First Quarter
Aug 1
Full

Hourly Weather History & Observations

Time (EDT) Temp. Heat Index Dew Point Humidity Pressure Visibility Wind Dir Wind Speed Gust Speed Precip Events Conditions
12:53 AM 71.1 °F - 68.0 °F 90% 29.99 in 7.0 mi Calm Calm - N/A   Clear
1:53 AM 69.1 °F - 66.9 °F 93% 29.99 in 5.0 mi Calm Calm - N/A   Clear
2:53 AM 69.1 °F - 66.9 °F 93% 29.97 in 4.0 mi Calm Calm - N/A   Clear
3:53 AM 69.1 °F - 66.9 °F 93% 29.96 in 4.0 mi Calm Calm - N/A   Clear
4:53 AM 68.0 °F - 66.0 °F 93% 29.96 in 4.0 mi Calm Calm - N/A   Clear
5:08 AM 66.2 °F - 66.2 °F 100% 30.04 in 2.5 mi Calm Calm - N/A   Clear
5:21 AM 66.2 °F - 66.2 °F 100% 30.04 in 4.0 mi Calm Calm - N/A   Clear
5:53 AM 68.0 °F - 66.0 °F 93% 29.97 in 4.0 mi Calm Calm - N/A   Partly Cloudy
6:53 AM 68.0 °F - 66.0 °F 93% 29.98 in 6.0 mi Calm Calm - N/A   Scattered Clouds
7:53 AM 71.1 °F - 68.0 °F 90% 30.00 in 10.0 mi Calm Calm - N/A   Scattered Clouds
8:53 AM 75.9 °F - 68.0 °F 76% 30.00 in 10.0 mi Calm Calm - N/A   Scattered Clouds
9:53 AM 82.0 °F 84.9 °F 68.0 °F 62% 30.01 in 10.0 mi Variable 5.8 mph - N/A   Partly Cloudy
10:53 AM 86.0 °F 90.1 °F 69.1 °F 57% 30.00 in 10.0 mi SE 5.8 mph - N/A   Scattered Clouds
11:53 AM 89.1 °F 92.9 °F 68.0 °F 50% 30.00 in 10.0 mi Variable 4.6 mph - N/A   Scattered Clouds
12:53 PM 91.9 °F 95.9 °F 68.0 °F 45% 29.96 in 10.0 mi WSW 6.9 mph - N/A   Scattered Clouds
1:53 PM 93.0 °F 97.4 °F 68.0 °F 44% 29.93 in 10.0 mi Calm Calm - N/A   Scattered Clouds
2:53 PM 93.0 °F 96.4 °F 66.9 °F 42% 29.92 in 10.0 mi Variable 5.8 mph - N/A Thunderstorm Thunderstorm
3:53 PM 77.0 °F - 62.1 °F 60% 30.04 in 9.0 mi ENE 19.6 mph 42.6 mph N/A Thunderstorm Thunderstorm
4:07 PM 69.8 °F - 64.4 °F 83% 30.14 in 0.5 mi NE 13.8 mph 39.1 mph 0.03 in Fog , Rain , Thunderstorm Heavy Thunderstorms and Rain
4:17 PM 66.2 °F - 64.4 °F 94% 30.11 in 1.0 mi Variable 6.9 mph 23.0 mph 0.38 in Rain , Thunderstorm Heavy Thunderstorms and Rain
4:27 PM 66.2 °F - 64.4 °F 94% 30.10 in 3.0 mi NE 5.8 mph - 0.43 in Rain , Thunderstorm Thunderstorms and Rain
4:53 PM 68.0 °F - 66.2 °F 94% 30.13 in 4.0 mi NNE 8.1 mph - N/A Rain , Thunderstorm Light Thunderstorms and Rain
5:41 PM 68.0 °F - 66.2 °F 94% 30.10 in 4.0 mi Calm Calm - 0.52 in Rain , Thunderstorm Thunderstorms and Rain
5:53 PM 69.1 °F - 66.0 °F 90% 30.05 in 3.0 mi SW 6.9 mph - 0.56 in Rain , Thunderstorm Thunderstorms and Rain
6:40 PM 68.0 °F - 66.2 °F 94% 30.11 in 10.0 mi West 8.1 mph - 0.04 in   Mostly Cloudy
6:53 PM 69.1 °F - 66.0 °F 90% 30.05 in 10.0 mi WSW 9.2 mph - 0.04 in   Mostly Cloudy
7:53 PM 69.1 °F - 66.0 °F 90% 30.03 in 8.0 mi Calm Calm - N/A   Mostly Cloudy
8:40 PM 68.0 °F - 66.2 °F 94% 30.12 in 9.0 mi East 4.6 mph - N/A   Overcast
8:53 PM 68.0 °F - 66.0 °F 93% 30.04 in 9.0 mi Calm Calm - N/A   Mostly Cloudy
9:53 PM 68.0 °F - 66.0 °F 93% 29.99 in 10.0 mi SSW 8.1 mph - 0.00 in   Mostly Cloudy
10:53 PM 68.0 °F - 66.0 °F 93% 29.99 in 6.0 mi Calm Calm - N/A   Mostly Cloudy
11:53 PM 68.0 °F - 66.0 °F 93% 29.99 in 5.0 mi Calm Calm - N/A   Mostly Cloudy